Regional Weather Roundup
Issued by NWS Green Bay, WI

Home | Current Version | Previous Version | Graphics & Text | Print | Product List | Glossary Off
Versions: 1 2 3 4 5 6 7 8 9 10 11 12 13 14 15 16 17 18 19 20 21 22 23 24 25 26 27 28 29 30 31 32 33 34 35 36 37 38 39 40 41 42 43 44 45 46 47 48 49 50

603
ASUS43 KGRB 220600
RWRGRB

NORTH-CENTRAL AND NORTHEAST WISCONSIN REGIONAL WEATHER ROUNDUP
NATIONAL WEATHER SERVICE GREEN BAY WI
100 AM CDT TUE MAY 22 2018

WIZ005-009-010>012-018-019-220700-
NORTH CENTRAL WISCONSIN

CITY           SKY/WX    TMP DP  RH WIND       PRES   REMARKS
IRONWOOD       FAIR      54  49  83 S6        30.01F
MANITOWISH WTR NOT AVBL
ARBOR VITAE    NOT AVBL
EAGLE RIVER    NOT AVBL
LAND O LAKES   NOT AVBL
RHINELANDER    CLOUDY    53  51  93 CALM      30.04F
PHILLIPS       NOT AVBL
ANTIGO         NOT AVBL
TOMAHAWK       NOT AVBL
MERRILL        NOT AVBL
$$

WIZ013-073-220700-
NORTHEAST WISCONSIN

CITY           SKY/WX    TMP DP  RH WIND       PRES   REMARKS
IRON MOUNTAIN  CLOUDY    51  45  79 S3        30.03F
MARINETTE      NOT AVBL
$$

WIZ017-030-035>037-045-220700-
CENTRAL WISCONSIN

CITY           SKY/WX    TMP DP  RH WIND       PRES   REMARKS
MEDFORD        NOT AVBL
WAUSAU         CLOUDY    50  49  96 E3        30.02F
MOSINEE        NOT AVBL
MARSHFIELD     FOG       51  51 100 E6        30.02S VSB 1/2
WISC RAPIDS    CLOUDY    51  50  96 E8        30.03F FOG
STEVENS POINT  NOT AVBL
WAUPACA        NOT AVBL
SHAWANO        NOT AVBL
CLINTONVILLE   NOT AVBL
WAUTOMA        CLOUDY    51  50  96 E5        30.03F
$$

WIZ038-039-048-051-220700-
FOX VALLEY

CITY           SKY/WX    TMP DP  RH WIND       PRES   REMARKS
NWS GREEN BAY  CLOUDY    51  48  89 CALM      30.03F
APPLETON       NOT AVBL
OSHKOSH        CLOUDY    51  50  96 SE3       30.02F
FOND DU LAC    CLOUDY    50  48  93 NE5       30.02F
$$

WIZ022-050-052-220700-
EAST CENTRAL WISCONSIN

CITY           SKY/WX    TMP DP  RH WIND       PRES   REMARKS
EPHRAIM        NOT AVBL
WASHINGTON ISL NOT AVBL
STURGEON BAY   CLOUDY    49  46  90 CALM      30.04F
MANITOWOC      CLOUDY    48  48 100 CALM      30.03F FOG
SHEBOYGAN      FOG       48  47  96 N3        30.02F VSB 3/4
$$

LMZ563-521-522-541>543-220700-
LAKESHORE

STATION/POSITION TIME  TEMP    WIND        PRES    VSBY  WAVE
                       AIR SEA DIR/SP/G                  HT/PER
                 (UTC) (F)     (DEG/KT/KT) (MB)    (MI)  (FT/S)
SHEBOYGAN LKSHOR 0500   46     350/  8/  9 1017.1F
KEWAUNEE LKSHORE 0530   47     320/  1/  2 1016.3F
NORTHPORT PIER   0540   48                 1017.3F
N MID LAKE BUOY  0540   44 37   CALM  /  2 1017.1F
SISTER BAY LKSHO 0527   48        CALM       N/A
MENOMINEE LKSHOR 0524   50      20/  5/  6 1017.2
$$




USA.gov is the U.S. government's official web portal to all federal, state and local government web resources and services.